Flag for Colombia Weather past 2 weeks in Ibagué, Colombia

Now
68 °F

Scattered clouds.


Feels Like: 68 °F
Forecast: 50 / 81 °F
Wind: 8 mph from Southeast

Location: Pereira / Matecana

Current Time: Sep 5, 2015 at 8:21:26 AM

Latest Report: Sep 5, 2015 at 7:00 AM


Visibility: N/A

Pressure: 30.08 "Hg (25.91 "Hg at 1281m altitude)

Humidity: 78%

Dew point: 61 °F

Location of IbaguéLocation

Historic Weather in Ibagué — Graph

°F

Ibagué temperature yesterday

Maximum temperature yesterday: 84 °F (at 1:00 PM)
Minimum temperature yesterday: 64 °F (at 5:00 AM)
Average temperature yesterday: 75 °F

Past Weeks' High & Low Weather Summary

 TemperatureHumidityPressure
High88 °F (Aug 29, 3:00 PM)100% (Aug 21, 7:00 AM)30.14 "Hg (Aug 21, 7:00 AM)
Low64 °F (Aug 30, 5:00 AM)38% (Aug 29, 3:00 PM)29.89 "Hg (Aug 23, 5:00 PM)
Average75 °F71%30.02 "Hg
* Reported Aug 21 7:00 AM — Sep 5 7:00 AM, Ibagué, Weather by CustomWeather, © 2015

Note: Actual official high and low records may vary slightly from our data, if they occured in-between our weather recording intervals... More about our weather records

Advertising

Ibagué weather history for previous 24 hours

 ConditionsComfort  
Time TempWeatherWind HumidityBarometerVisibility
7:00 AM
Sat, Sep 5
68 °FScattered clouds.8 mph78%30.08 "HgN/A
6:00 AM66 °FScattered clouds.9 mph83%30.06 "HgN/A
5:00 AM66 °FPassing clouds.5 mph83%30.03 "Hg5 mi
1:00 AM70 °FPassing clouds.5 mph78%30.03 "HgN/A
12:00 AM70 °FPassing clouds.6 mph78%30.05 "HgN/A
11:00 PM
Fri, Sep 4
70 °FPassing clouds.2 mph78%30.06 "HgN/A
10:00 PM72 °FPassing clouds.6 mph73%30.05 "HgN/A
9:00 PM72 °FPassing clouds.2 mph73%30.03 "HgN/A
8:00 PM73 °FPassing clouds.5 mph74%30.00 "HgN/A
7:00 PM75 °FPassing clouds.7 mph69%29.97 "HgN/A
6:00 PM79 °FScattered clouds.8 mph61%29.94 "HgN/A
5:00 PM82 °FScattered clouds.6 mph51%29.93 "HgN/A
4:00 PM82 °FScattered clouds.2 mph51%29.92 "HgN/A
3:00 PM82 °FPartly sunny.5 mph51%29.94 "HgN/A
2:00 PM84 °FPartly sunny.3 mph51%29.97 "HgN/A
1:00 PM84 °FScattered clouds.2 mph55%30.00 "HgN/A
12:00 PM82 °FScattered clouds.6 mph58%30.02 "HgN/A
11:00 AM81 °FScattered clouds.2 mph62%30.05 "HgN/A
10:00 AM77 °FScattered clouds.5 mph65%30.07 "HgN/A
9:00 AM73 °FScattered clouds.5 mph69%30.08 "HgN/A
8:00 AM72 °FScattered clouds.3 mph73%30.07 "HgN/A
Weather by CustomWeather, © 2015

See weather overviewHow to use our weather pages